| time (UTC) | temp F | wind direction | speed knots | gust knots | rain 1hr in | rain 24hr in | rain mn in | humidity % | barometer mb |
| 20260504034545 | 41 | 161 | 0.0 | 0.0 | 0.00 | 0.00 | 0.00 | 86 | 1017.7 |
| 20260504033051 | 41 | 161 | 0.0 | 0.0 | 0.00 | 0.00 | 0.00 | 85 | 1017.7 |
| 20260504031543 | 42 | 161 | 0.0 | 0.0 | 0.00 | 0.00 | 0.00 | 84 | 1017.7 |
| 20260504030041 | 42 | 161 | 0.0 | 0.0 | 0.00 | 0.00 | 0.00 | 82 | 1017.6 |
| 20260504024553 | 42 | 170 | 0.0 | 0.0 | 0.00 | 0.00 | 0.00 | 82 | 1017.6 |
| 20260504023037 | 43 | 170 | 0.0 | 0.0 | 0.00 | 0.00 | 0.00 | 80 | 1017.6 |
| 20260504021541 | 43 | 170 | 0.0 | 0.0 | 0.00 | 0.00 | 0.00 | 79 | 1017.7 |
| 20260504020034 | 44 | 170 | 0.0 | 0.0 | 0.00 | 0.00 | 0.00 | 78 | 1017.7 |
| 20260504014532 | 44 | 200 | 0.0 | 0.0 | 0.00 | 0.00 | 0.00 | 76 | 1017.6 |
| 20260504013036 | 45 | 200 | 0.0 | 0.0 | 0.00 | 0.00 | 0.00 | 73 | 1017.5 |
| 20260504011532 | 46 | 200 | 0.0 | 0.0 | 0.00 | 0.00 | 0.00 | 71 | 1017.3 |
| 20260504010032 | 47 | 200 | 0.0 | 0.0 | 0.00 | 0.00 | 0.00 | 69 | 1017.2 |
| 20260504004541 | 48 | 203 | 0.0 | 0.0 | 0.00 | 0.00 | 0.00 | 66 | 1017.1 |
| 20260504003031 | 49 | 217 | 0.0 | 0.0 | 0.00 | 0.00 | 0.00 | 62 | 1017.0 |
| 20260504001530 | 51 | 217 | 0.0 | 0.0 | 0.00 | 0.00 | 0.00 | 58 | 1016.8 |
| 20260504000030 | 53 | 236 | 0.0 | 0.0 | 0.00 | 0.00 | 0.00 | 55 | 1016.7 |
| 20260503234530 | 55 | 251 | 0.0 | 0.0 | 0.00 | 0.00 | 0.00 | 51 | 1016.5 |
| 20260503233031 | 57 | 252 | 0.0 | 0.0 | 0.00 | 0.00 | 0.00 | 45 | 1016.5 |
| 20260503231529 | 59 | 184 | 0.0 | 0.0 | 0.00 | 0.00 | 0.00 | 39 | 1016.3 |
| 20260503230028 | 60 | 260 | 0.0 | 0.9 | 0.00 | 0.00 | 0.00 | 37 | 1016.4 |
| 20260503224527 | 62 | 210 | 0.0 | 2.6 | 0.00 | 0.00 | 0.00 | 36 | 1016.4 |
| 20260503223026 | 63 | 205 | 0.0 | 2.6 | 0.00 | 0.00 | 0.00 | 36 | 1016.4 |
| 20260503221527 | 63 | 43 | 0.0 | 4.3 | 0.00 | 0.00 | 0.00 | 35 | 1016.4 |
| 20260503220025 | 63 | 203 | 0.0 | 6.1 | 0.00 | 0.00 | 0.00 | 35 | 1016.5 |
| 20260503214523 | 63 | 197 | 0.0 | 4.3 | 0.00 | 0.00 | 0.00 | 35 | 1016.3 |
| 20260503213026 | 63 | 281 | 1.7 | 11.3 | 0.00 | 0.00 | 0.00 | 35 | 1016.4 |
| 20260503211533 | 63 | 15 | 0.0 | 9.6 | 0.00 | 0.00 | 0.00 | 36 | 1016.3 |
| 20260503210019 | 63 | 216 | 0.9 | 11.3 | 0.00 | 0.00 | 0.00 | 35 | 1016.2 |
| 20260503204519 | 62 | 190 | 2.6 | 11.3 | 0.00 | 0.00 | 0.00 | 35 | 1016.3 |
| 20260503203020 | 63 | 315 | 0.0 | 7.0 | 0.00 | 0.00 | 0.00 | 35 | 1016.2 |
| 20260503201515 | 62 | 215 | 0.0 | 5.2 | 0.00 | 0.00 | 0.00 | 38 | 1016.2 |
| 20260503200014 | 62 | 131 | 0.0 | 7.0 | 0.00 | 0.00 | 0.00 | 35 | 1016.7 |
| 20260503194512 | 61 | 61 | 2.6 | 10.4 | 0.00 | 0.00 | 0.00 | 38 | 1016.7 |
| 20260503193028 | 61 | 170 | 6.1 | 13.0 | 0.00 | 0.00 | 0.00 | 38 | 1016.9 |
| 20260503191512 | 61 | 145 | 0.0 | 7.0 | 0.00 | 0.00 | 0.00 | 36 | 1017.3 |
| 20260503190018 | 61 | 212 | 0.0 | 7.0 | 0.00 | 0.00 | 0.00 | 39 | 1017.1 |
| 20260503184507 | 61 | 258 | 0.0 | 7.0 | 0.00 | 0.00 | 0.00 | 39 | 1017.2 |
| 20260503183004 | 61 | 264 | 0.0 | 7.0 | 0.00 | 0.00 | 0.00 | 39 | 1017.3 |
| 20260503181502 | 60 | 38 | 0.9 | 7.8 | 0.00 | 0.00 | 0.00 | 38 | 1017.5 |
| 20260503174618 | 59 | 8 | 0.9 | 13.0 | 0.00 | 0.00 | 0.00 | 43 | 1017.5 |
| 20260503173103 | 58 | 205 | 1.7 | 7.8 | 0.00 | 0.00 | 0.00 | 42 | 1017.7 |
| 20260503171556 | 58 | 340 | 2.6 | 14.8 | 0.00 | 0.00 | 0.00 | 40 | 1017.7 |
| 20260503100110 | 48 | 290 | 0.0 | 4.3 | 0.00 | 0.00 | 0.00 | 62 | 1015.8 |
| 20260503081547 | 50 | 155 | 0.0 | 7.0 | 0.00 | 0.00 | 0.00 | 67 | 1014.6 |
| 20260503071540 | 49 | 280 | 0.0 | 0.9 | 0.00 | 0.00 | 0.00 | 78 | 1014.1 |
| 20260503054528 | 46 | 233 | 0.0 | 0.0 | 0.00 | 0.00 | 0.00 | 89 | 1013.6 |
| 20260503053015 | 46 | 234 | 0.0 | 0.0 | 0.00 | 0.00 | 0.00 | 89 | 1013.4 |
| 20260503051513 | 45 | 234 | 0.0 | 0.0 | 0.00 | 0.00 | 0.00 | 90 | 1013.4 |
| 20260503050011 | 45 | 234 | 0.0 | 0.0 | 0.00 | 0.00 | 0.00 | 90 | 1013.4 |
| 20260503044513 | 45 | 208 | 0.0 | 0.0 | 0.00 | 0.00 | 0.00 | 91 | 1013.6 |
| 20260503043007 | 44 | 208 | 0.0 | 0.0 | 0.00 | 0.00 | 0.00 | 91 | 1013.6 |
| 20260503041507 | 44 | 208 | 0.0 | 0.0 | 0.00 | 0.00 | 0.00 | 90 | 1013.6 |
| 20260503040005 | 44 | 208 | 0.0 | 0.0 | 0.00 | 0.00 | 0.00 | 90 | 1013.7 |